This demonstration page uses our WeatherBlox Daily Observations layout. Learn more.

Left ArrowRight Arrow

Hourly Observations for April 10, 2015

Temp ( °F °C ) Dew Point ( °F °C ) Humidity (%) Winds ( mph kmh ) Pressure ( in mb ) Visibility ( mi km ) Precip ( " mm )
12:51 am 00:51 Clear 52 11.1 14 -10 22 22 NE 6 9 29.86 1011 10 16 N/A
1:51 am 01:51 Clear 52 11.1 16 -8.9 24 24 SSE 6 9 29.85 1011 10 16 N/A
2:51 am 02:51 Clear 48 8.9 15 -9.4 27 27 ESE 3 6 29.87 1011 10 16 N/A
3:51 am 03:51 Clear 50 10 15 -9.4 25 25 NE 8 13 29.86 1011 10 16 N/A
4:51 am 04:51 Clear 51 10.6 15 -9.4 24 24 NE 5 7 29.86 1011 10 16 N/A
5:51 am 05:51 Clear 45 7.2 16 -8.9 31 31 SW 3 6 29.88 1012 10 16 N/A
6:51 am 06:51 Sunny 50 10 18 -7.8 28 28 N N/A 29.90 1013 10 16 N/A
7:51 am 07:51 Sunny 57 13.9 18 -7.8 22 22 N N/A 29.92 1013 10 16 N/A
8:51 am 08:51 Sunny 65 18.3 21 -6.1 19 19 N N/A 29.91 1013 10 16 N/A
9:51 am 09:51 Sunny 72 22.2 18 -7.8 13 13 ESE 7 11 29.90 1013 10 16 N/A
10:51 am 10:51 Sunny 74 23.3 18 -7.8 12 12 SE 8 13 29.89 1012 10 16 N/A
11:51 am 11:51 Sunny 77 25 18 -7.8 11 11 VRB 7 11 29.87 1011 10 16 N/A
12:51 pm 12:51 Sunny 80 26.7 17 -8.3 9 9 VRB 6 9 29.85 1011 10 16 N/A
1:51 pm 13:51 Sunny 82 27.8 16 -8.9 8 8 NNE 8 13 29.81 1010 10 16 N/A
2:51 pm 14:51 Sunny 83 28.3 15 -9.4 8 8 NNE 7 11 29.78 1009 10 16 N/A
3:51 pm 15:51 Sunny 82 27.8 14 -10 8 8 WSW 8 13 29.77 1008 10 16 N/A
4:51 pm 16:51 Sunny 82 27.8 13 -10.6 7 7 VRB 6 9 29.74 1007 10 16 N/A
5:51 pm 17:51 Sunny 81 27.2 12 -11.1 7 7 WNW 10 17 29.75 1008 10 16 N/A
6:51 pm 18:51 Clear 76 24.4 13 -10.6 9 9 NW 10 17 29.77 1008 10 16 N/A
7:51 pm 19:51 Clear 72 22.2 14 -10 11 11 NW 10 17 29.79 1009 10 16 N/A
8:51 pm 20:51 Clear 67 19.4 14 -10 13 13 NW 9 15 29.82 1010 10 16 N/A
9:51 pm 21:51 Clear 67 19.4 15 -9.4 13 13 NW 9 15 29.81 1010 10 16 N/A
10:51 pm 22:51 Clear 64 17.8 15 -9.4 15 15 W 8 13 29.83 1010 10 16 N/A
11:51 pm 23:51 Clear 60 15.6 15 -9.4 17 17 N N/A 29.83 1010 10 16 N/A

Powered by AerisWeather